This demonstration page uses our WeatherBlox Daily Observations layout. Learn more.

Left ArrowRight Arrow

41.12389, -100.76542

Hourly Observations for November 12, 2016

Temp ( °F °C ) Dew Point ( °F °C ) Humidity (%) Winds ( mph kmh ) Pressure ( in mb ) Visibility ( mi km ) Precip ( " mm )
12:53 am 00:53 Clear 20 -6.7 16 -8.9 85 85 ENE 5 7 30.47 1032 10 16 0.00 0.00
1:53 am 01:53 Clear 23 -5 18 -7.8 81 81 Calm 30.45 1031 10 16 0.00 0.00
2:53 am 02:53 Clear 20 -6.7 16 -8.9 85 85 Calm 30.44 1031 10 16 0.00 0.00
3:53 am 03:53 Clear 28 -2.2 22 -5.6 78 78 Calm 30.41 1030 10 16 0.00 0.00
4:53 am 04:53 Clear 22 -5.6 19 -7.2 89 89 E 6 9 30.42 1030 10 16 0.00 0.00
5:53 am 05:53 Clear 22 -5.6 20 -6.7 92 92 E 3 6 30.44 1031 10 16 0.00 0.00
6:53 am 06:53 Clear 23 -5 19 -7.2 85 85 E 3 6 30.43 1031 10 16 0.00 0.00
7:53 am 07:53 Sunny 31 -0.6 26 -3.3 82 82 S 5 7 30.41 1030 10 16 0.00 0.00
8:53 am 08:53 Sunny 35 1.7 29 -1.7 78 78 S 8 13 30.40 1030 10 16 0.00 0.00
9:53 am 09:53 Sunny 45 7.2 32 0 61 61 SSW 14 22 30.36 1028 10 16 0.00 0.00
10:53 am 10:53 Sunny 51 10.6 29 -1.7 43 43 SSW 17 28 30.33 1027 10 16 0.00 0.00
11:53 am 11:53 Sunny 55 12.8 28 -2.2 35 35 SSW 17 28 30.30 1026 10 16 0.00 0.00
12:53 pm 12:53 Sunny 58 14.4 28 -2.2 32 32 S 13 20 30.26 1025 10 16 0.00 0.00
1:53 pm 13:53 Sunny 61 16.1 25 -3.9 25 25 S 18 30 30.20 1023 10 16 0.00 0.00
2:53 pm 14:53 Sunny 63 17.2 25 -3.9 24 24 S 16 26 30.16 1022 10 16 0.00 0.00
3:53 pm 15:53 Sunny 62 16.7 24 -4.4 23 23 S 13 20 30.13 1020 10 16 0.00 0.00
4:53 pm 16:53 Sunny 59 15 23 -5 25 25 S 10 17 30.14 1021 10 16 0.00 0.00
5:53 pm 17:53 Clear 52 11.1 24 -4.4 34 34 SSE 8 13 30.15 1021 10 16 0.00 0.00
6:53 pm 18:53 Clear 52 11.1 24 -4.4 34 34 SSE 10 17 30.15 1021 10 16 0.00 0.00
7:53 pm 19:53 Clear 51 10.6 23 -5 33 33 SE 6 9 30.14 1021 10 16 0.00 0.00
8:53 pm 20:53 Clear 48 8.9 22 -5.6 36 36 S 8 13 30.13 1020 10 16 0.00 0.00
9:53 pm 21:53 Clear 48 8.9 22 -5.6 36 36 VRB 5 7 30.11 1020 10 16 0.00 0.00
10:53 pm 22:53 Clear 46 7.8 21 -6.1 37 37 VRB 3 6 30.10 1019 10 16 0.00 0.00
11:53 pm 23:53 Clear 40 4.4 21 -6.1 47 47 Calm 30.09 1019 10 16 0.00 0.00

Powered by AerisWeather